SCP
1 1 1 1 1 1 1 1 1 1 1 0 0 0 0 0 0 0 0 1 1 1 0 1 1 1 0 0 0 0 0 0 0 0 0 0 0 0 0 0 0 0 0
1 1 1 1 1 1 1 1 1 1 1 0 0 0 0 0 0 0 1 1 1 1 1 1 1 1 1 0 0 0 0 0 0 0 0 0 0 0 0 0 0 0 0
2 2 2 1 1 1 1 1 1 1 1 1 1 1 1 1 1 1 1 1 1 1 1 1 1 1 1 1 1 0 0 0 0 0 0 0 0 0 0 0 0 0 0
2 2 2 1 1 1 1 1 1 1 1 1 1 1 1 1 1 1 1 1 1 1 1 1 1 1 1 1 1 1 1 1 1 1 0 0 0 0 0 0 0 0 0
2 2 2 2 2 2 1 1 1 1 1 1 1 1 2 2 2 1 1 1 1 1 1 1 1 1 1 1 1 1 1 1 1 1 1 1 0 0 0 0 0 0 0
3 3 2 2 3 2 2 2 2 1 1 1 1 1 1 1 2 1 1 1 1 2 2 2 1 1 1 1 1 1 1 1 1 1 1 1 1 1 0 0 0 0 0
5 4 3 3 3 3 2 2 2 2 2 1 1 1 1 1 1 1 1 1 2 2 2 2 2 2 2 1 1 1 1 1 1 1 1 1 1 1 1 0 0 0 0
6 5 4 3 3 3 2 2 2 2 2 2 1 1 1 1 1 1 2 2 2 2 2 2 3 3 3 2 2 1 1 2 2 2 1 1 1 1 1 1 1 1 1
6 5 3 2 2 2 2 2 2 2 2 2 2 2 1 1 1 1 1 2 2 2 2 2 3 3 4 3 2 2 1 2 2 2 2 1 1 1 1 1 1 1 1
6 5 3 2 3 3 2 2 3 3 3 2 2 2 1 1 1 1 1 2 2 2 2 2 2 3 4 4 4 3 2 2 1 2 2 2 1 1 1 1 1 1 1
5 4 3 3 3 3 3 3 3 3 3 3 3 2 2 2 1 1 1 1 2 2 2 2 2 3 3 4 4 3 2 2 1 1 2 2 2 2 1 1 1 1 1
5 4 3 4 4 4 3 3 3 3 3 3 3 3 2 2 2 2 1 1 1 2 2 2 2 2 3 3 3 3 2 1 1 1 1 2 2 2 2 2 1 2 2
5 4 3 3 3 3 3 3 2 2 3 3 3 3 3 2 2 2 2 1 1 1 2 2 2 2 2 2 3 2 2 1 1 1 1 1 1 2 2 1 1 1 1
4 3 3 3 3 3 3 3 2 2 2 3 3 3 2 2 2 2 2 2 1 1 1 2 2 2 2 2 2 2 2 1 0 0 0 1 1 1 1 1 1 1 1
3 3 3 4 3 3 3 3 2 2 2 2 2 2 2 2 2 2 2 2 1 1 1 1 2 2 2 2 2 2 2 1 0 0 0 0 0 0 0 0 0 0 0
3 3 3 4 3 3 3 3 2 2 2 2 2 2 2 1 1 2 2 2 2 1 1 1 1 2 2 2 1 2 2 1 0 0 0 0 0 0 0 0 0 0 0
3 3 3 3 4 3 3 2 2 2 1 2 2 2 1 1 1 2 2 2 2 1 1 1 1 2 2 2 2 2 2 1 1 0 0 0 0 0 0 0 0 0 0
4 4 3 4 4 3 3 2 2 1 1 1 1 1 1 1 1 1 2 2 1 1 1 1 1 2 2 2 2 2 2 1 1 0 0 0 0 0 0 0 0 0 0
4 4 4 4 4 3 3 2 2 1 1 1 1 1 1 2 2 1 1 1 1 1 1 1 1 2 2 2 2 2 2 1 1 0 0 0 0 0 0 0 0 0 0
4 4 4 4 3 3 3 2 2 2 2 1 1 1 2 2 2 1 1 1 1 1 1 1 1 1 2 1 1 1 1 1 1 0 0 0 0 0 0 0 0 0 0
3 3 4 3 3 3 2 2 2 2 2 2 2 2 2 2 1 1 1 1 1 1 1 1 1 1 1 1 1 1 1 1 1 0 0 0 1 1 0 0 0 0 0
4 4 4 4 3 3 2 2 2 2 2 2 2 3 2 1 1 0 0 0 0 0 0 0 1 1 1 1 1 1 1 1 0 0 0 0 1 1 0 0 0 0 0
5 5 6 5 5 3 2 2 1 2 2 2 3 3 2 1 0 0 0 0 0 0 0 0 0 0 0 1 1 1 0 0 0 0 0 0 1 1 0 0 0 0 0
5 6 7 7 6 4 3 2 1 2 2 2 2 2 1 1 0 0 0 0 0 0 0 0 0 0 0 1 1 0 0 0 0 1 1 1 1 1 0 0 0 0 0
5 6 6 7 6 4 3 1 1 2 2 2 1 1 1 0 0 0 0 0 1 1 0 0 0 0 0 0 0 0 0 1 1 1 1 1 1 1 0 0 0 0 0
5 5 5 5 5 4 2 1 1 2 2 1 1 0 0 0 0 0 0 1 1 1 1 1 0 0 0 0 0 0 0 1 1 1 1 1 0 0 0 0 0 0 0
Wind_Speed
3 2 1 1 2 2 3 2 2 2 1 1 2 1 0 1 3 6 6 12 12 11 11 11 10 10 10 9 8 8 8 8 8 7 7 7 7 7 7 7 7 6 6
2 3 2 1 1 2 2 2 2 2 2 2 2 1 1 1 1 5 7 8 12 12 11 11 11 11 11 10 10 10 9 8 8 8 8 8 8 8 7 7 7 7 6
3 2 2 2 2 1 1 1 2 1 2 3 3 2 2 2 2 3 6 6 7 11 13 12 12 12 12 12 11 11 10 10 9 9 9 9 8 8 8 8 8 7 7
3 2 2 2 2 2 2 2 2 2 2 2 2 3 3 3 3 3 4 6 6 8 11 15 14 13 13 13 13 13 12 11 11 11 11 10 10 9 9 9 9 8 8
4 3 2 2 3 2 2 3 3 2 2 2 2 3 3 3 4 5 5 6 7 7 7 12 16 15 16 15 14 14 13 13 12 12 13 12 12 11 11 10 10 10 9
5 4 3 3 3 2 2 2 1 2 2 2 4 3 3 4 4 4 5 5 5 7 8 9 10 11 16 15 15 15 15 14 14 14 14 14 13 12 12 12 11 11 11
6 5 4 3 4 3 3 3 2 3 3 3 2 3 3 4 4 4 4 4 5 6 6 8 8 7 8 16 16 15 15 15 15 14 14 14 14 13 13 13 12 12 12
6 6 5 4 5 3 4 4 3 2 3 3 2 2 2 2 3 6 5 5 5 4 5 7 8 7 6 6 9 15 15 15 15 15 15 14 14 13 13 13 13 13 13
5 5 6 5 4 5 4 5 5 5 3 3 3 2 2 2 2 2 3 3 3 3 3 4 6 7 7 5 7 12 15 14 14 15 14 14 14 14 14 14 14 14 14
5 6 6 6 5 4 4 6 6 5 4 3 3 3 3 1 1 2 2 1 3 3 3 4 4 5 5 4 5 8 13 13 13 14 13 13 13 13 14 15 15 15 15
4 5 5 4 4 4 5 5 4 4 4 4 3 3 3 3 4 3 3 2 2 1 2 2 2 3 5 4 4 6 11 11 11 11 11 11 11 11 12 13 15 15 14
3 5 5 4 5 4 4 4 4 5 5 5 4 3 3 2 3 3 3 3 3 2 1 1 2 2 2 3 5 7 10 10 10 10 9 9 9 9 10 11 12 13 13
3 4 5 4 4 4 4 4 4 5 5 5 4 4 3 3 3 2 3 3 3 2 2 1 2 1 2 2 2 5 8 9 9 8 8 8 7 7 7 7 8 9 9
3 3 4 4 4 5 5 4 4 5 4 4 5 4 3 3 2 2 3 3 3 2 2 2 1 1 1 2 3 6 5 8 8 7 6 6 5 5 5 5 6 6 7
2 2 2 3 4 4 4 3 3 4 3 4 3 3 3 3 2 2 2 2 3 3 3 2 1 1 1 1 3 3 3 7 8 7 6 5 4 4 3 3 4 4 5
2 2 1 2 3 3 3 3 3 3 3 2 2 3 3 2 2 2 2 2 2 2 2 1 1 1 1 1 3 2 2 6 7 7 6 5 5 4 3 3 3 3 3
1 2 2 1 1 1 1 1 2 2 2 1 2 2 3 2 1 1 1 1 1 1 2 2 1 1 1 1 1 1 1 2 3 6 6 6 5 4 3 2 2 2 2
2 2 2 2 2 2 2 1 0 1 0 0 1 1 2 1 0 1 1 1 1 1 2 2 1 2 2 1 1 1 1 1 2 4 5 4 4 3 3 2 2 2 1
2 2 3 3 3 3 3 3 3 2 3 3 3 2 2 2 2 1 1 1 1 1 0 1 1 1 1 1 1 1 1 1 1 3 4 4 4 4 4 3 2 2 2
3 3 4 4 4 4 4 4 3 4 5 5 5 5 4 4 3 2 2 2 1 1 0 0 0 1 1 1 1 1 1 1 1 3 3 4 5 6 5 4 4 3 2
4 4 5 5 5 4 5 5 4 6 6 6 6 6 7 8 9 6 4 4 3 2 2 1 2 2 2 2 2 1 1 1 2 3 2 2 3 3 4 5 6 5 5
5 5 5 6 6 6 9 10 7 6 6 6 5 5 6 7 8 9 11 10 8 5 3 3 2 2 2 2 2 2 1 2 1 2 2 2 2 3 3 3 5 7 6
5 6 6 7 8 9 11 10 10 7 7 7 7 6 6 7 6 5 8 9 11 11 8 4 4 3 3 3 3 3 3 2 1 1 1 1 2 3 2 4 6 6 6
5 6 6 7 7 9 10 9 9 8 8 8 8 8 7 7 8 6 6 7 8 8 7 6 5 4 4 3 3 2 2 2 3 3 3 2 2 2 3 3 4 5 5
6 6 6 7 7 7 10 9 6 6 7 8 8 9 8 8 10 8 6 6 6 5 7 8 7 6 7 7 5 3 3 3 2 3 3 3 2 2 1 1 2 3 2
6 7 8 7 7 8 10 11 7 5 6 6 6 8 12 10 11 10 6 5 5 4 3 4 4 3 4 5 7 5 4 3 2 2 3 2 1 1 1 1 0 1 1
Wind_Direction
160 147 139 158 185 179 174 205 218 188 176 208 230 211 165 49 119 133 143 165 165 170 176 181 185 186 186 187 190 190 190 192 188 187 189 189 188 186 188 188 187 188 190
141 149 166 193 208 202 186 187 199 182 193 227 239 225 187 109 124 138 150 171 177 180 185 190 194 196 197 197 199 200 201 202 198 196 197 201 202 199 199 196 197 199 197
154 172 175 199 211 192 185 202 221 215 212 213 216 220 193 203 190 165 159 167 180 193 195 197 200 202 205 205 206 206 207 207 205 203 204 207 207 205 206 205 207 208 207
171 201 193 204 208 194 185 219 239 227 231 229 214 214 201 194 200 196 189 182 179 189 200 204 204 206 209 212 213 213 212 211 209 209 209 211 212 212 211 212 215 215 215
189 209 219 200 218 217 204 228 199 224 249 250 241 218 211 202 206 213 208 203 192 185 183 199 205 207 211 214 217 218 215 213 212 213 214 215 216 215 216 218 220 220 219
202 211 221 205 224 216 215 235 228 216 250 261 267 257 229 211 202 214 216 215 199 196 193 190 195 210 214 215 217 219 219 215 214 216 218 219 219 218 218 220 223 224 225
204 203 236 202 223 223 214 224 220 231 232 236 263 281 262 231 211 208 214 219 211 207 194 180 185 194 206 216 218 219 220 220 217 217 219 220 221 220 220 222 224 227 227
210 207 210 220 215 219 217 228 223 238 252 221 211 254 285 275 246 223 203 210 213 202 198 191 188 190 193 190 209 217 220 222 222 221 220 220 221 221 220 223 225 227 228
216 229 206 221 224 222 214 215 217 218 236 250 216 199 221 249 280 254 218 212 199 187 205 202 192 187 195 183 190 210 216 219 223 225 224 223 224 224 223 224 226 228 228
227 229 221 222 224 233 227 218 217 216 221 241 246 227 236 240 273 308 301 237 212 200 218 227 204 183 187 185 183 183 203 213 220 226 227 227 227 228 229 230 232 232 231
231 238 229 226 225 234 234 233 226 216 216 225 234 234 234 238 229 229 268 293 293 238 217 228 235 179 181 184 176 179 189 201 209 218 224 227 228 229 232 233 236 238 237
231 237 230 218 221 229 233 233 229 223 225 232 237 242 235 226 227 221 235 252 260 265 248 222 222 207 170 174 189 183 179 191 202 211 219 224 228 230 234 237 240 240 241
243 238 236 219 222 224 225 228 228 234 230 231 232 239 245 243 240 237 238 249 255 254 247 232 224 196 194 157 173 172 175 185 193 203 209 214 222 229 235 240 241 242 243
254 253 233 225 226 229 229 221 233 229 233 235 239 237 246 253 251 246 241 239 258 264 262 257 247 184 188 161 175 169 172 182 186 190 196 202 209 219 226 231 238 241 242
268 268 233 226 225 227 233 228 231 234 224 227 242 249 248 261 262 256 248 233 230 255 269 259 251 247 182 156 166 165 164 178 178 177 180 188 196 207 215 223 232 235 238
323 319 275 236 229 228 223 228 234 225 217 232 236 253 255 260 267 267 259 248 222 224 247 265 259 251 175 186 140 132 170 152 168 175 178 184 187 192 199 211 224 233 236
355 343 7 6 338 293 229 214 236 232 218 246 257 254 253 253 257 276 287 268 248 220 237 269 297 338 15 47 87 150 168 155 170 177 183 185 180 180 187 191 198 211 227
49 27 32 41 29 25 18 31 13 26 35 322 316 333 331 318 344 326 319 299 276 258 231 253 297 339 357 24 29 355 89 136 137 153 174 173 167 164 161 153 141 132 151
69 54 57 52 39 36 33 39 43 36 38 37 35 28 17 21 20 13 358 334 319 304 237 218 274 321 350 0 353 351 31 38 71 107 119 127 127 122 119 120 113 110 110
71 63 62 54 48 43 39 41 49 52 52 47 42 40 33 29 20 9 12 356 351 4 354 314 325 342 349 340 11 341 28 42 53 70 71 89 102 105 101 91 84 81 93
73 67 63 56 47 45 37 41 49 62 58 54 49 50 55 56 54 48 42 25 20 22 21 33 31 32 17 2 355 335 41 62 60 59 74 86 93 85 80 75 71 70 76
70 71 65 61 57 51 41 46 54 62 57 54 51 50 64 61 64 66 64 57 49 43 35 40 35 34 20 12 1 4 40 46 38 25 49 63 91 90 89 79 81 84 82
69 73 69 68 64 47 44 51 55 66 61 52 45 43 53 51 48 67 71 62 54 47 47 56 48 28 27 13 17 22 22 22 29 13 38 44 63 79 78 91 107 104 101
76 75 73 71 70 51 43 51 61 71 66 55 47 44 49 43 35 41 66 66 58 46 44 58 59 46 40 16 16 26 30 36 65 37 23 38 33 50 77 96 121 119 120
78 74 74 72 69 53 36 40 63 79 74 64 57 49 46 46 30 41 65 73 70 66 60 65 68 62 50 39 35 37 30 38 44 42 20 28 15 21 38 95 126 144 148
89 85 76 70 68 57 38 39 53 84 87 83 74 63 51 43 33 35 51 60 63 50 50 56 63 52 51 46 44 40 34 33 37 44 19 19 14 14 5 15 102 174 192